{"data":{"norad_id":65844,"intl_designator":"2025-221X","name":"STARLINK-35148","alt_names":[],"object_type":"PAYLOAD","status":"ACTIVE","operator":null,"country":"US","launch_date":"2025-09-29","launch_site_code":"AFWTR","launch_vehicle":null,"mission":null,"orbit_class":"UNKNOWN","rcs_meters":null,"size_class":null,"mass_kg":null,"dimensions":null,"purposes":["comms"],"wikipedia_slug":null,"has_3d_model":false,"image_url":null,"decayed_at":null,"tle_current":{"epoch":"2026-09-20T06:54:36.370080Z","epoch_age_seconds":124431,"freshness":"FRESH","line1":"1 65844U 25221X   26263.28792095  .00011504  00000+0  35105-3 0  9997","line2":"2 65844  53.1572 260.4563 0001148  91.7557 268.3577 15.34402551 54586","mean_motion":15.34402551,"eccentricity":0.0001148,"inclination_deg":53.1572,"raan_deg":260.4563,"arg_perigee_deg":91.7557,"mean_anomaly_deg":268.3577,"bstar":0.00035105,"rev_number":5458,"period_min":93.847602056027,"perigee_km":461.91033051886,"apogee_km":463.48098569716,"semimajor_km":6840.832658108,"source":"CELESTRAK","updated_at":"2026-09-21T09:00:35.723333Z"}}}